THORAD AGENA D DEB, 42522

Orbit data source: Space-Track

THORAD AGENA D DEB, 42522 is space debris in SSO originally from a launch on Wed, 08 Apr 1970 UTC launched from the Air Force Western Test Range (AFWTR). Debris objects in space refer to the collection of defunct objects orbiting the Earth. Examples of debris include non-operational satellites, rocket bodies, and fragments generated from explosions, collisions, or faulty payload assembly.

Loading next visibility...
Identifier
42522, 1970-025SC
Orbit
SSO
Country
Flag of USUS
Related business
Manufacturer
Unknown
Mission
Spacecraft
Bus & Motor
Unknown
Mass
Unknown
Launch date (UTC)
1970-04-08 (56 years ago)
Launch vehicle
Unknown
Launch site
Air Force Western Test Range (AFWTR)
Object type
Payload
Rocket body
Debris
Shape & HBR
Unknown shape, 0.1 m
Radar Cross Section
Small (<0.1 m²)

Expand to show TLE details & history
Last TLE update: 1 day ago

TLE from 1 day ago
0 THORAD AGENA D DEB
1 42522U 70025SC  25295.54421605  .00000674  00000-0  89715-3 0  9999
2 42522  99.6466  37.6148 0031572 213.1245 146.7921 13.64170183592518
Epoch: 2025-10-22T13:03Z
TLE epoch observation values (Epoch: 2025-10-22T13:03:40.266Z)
Latitude
-0°
Longitude
170.48073°
Altitude
1,042.952 km
Speed
7.321 km/s
True Right ascension
02h 30m 27s
True Declination
0° 00' 00"
Sunlit
Object was in full shadow at epoch
Visualization orbit readout
Latitude
Unknown
Longitude
Unknown
Altitude
Unknown
Speed
Unknown
Apparent Right ascension
Unknown
Apparent Declination
Unknown
Sunlit
N/A
Visualization observer readout
Local Sidereal Time
07:54:11
Azimuth
Unknown
Elevation
Unknown
Doppler factor
Unknown
Orbital elements
Apogee altitude
1,041.206 km
Perigee altitude
994.504 km
Semi-major axis
7,395.992 km
Eccentricity
0.00316
Inclination
99.6466°
RAAN
37.6148°
Arg. of periapsis
213.1245°
True anomaly
146.98959°
Mean anomaly
146.7921°
Eccentric anomaly
146.89091°
Mean motion
3.41231 °/min
Orbital period
105.5 mins
BSTAR
0.00089715
Loading maneuver chart data...
Computing Atmospheric mass density...

Documentation

Showing up to 5 results
|